Regional Weather Roundup
Issued by NWS

Home | Current Version | Previous Version | Text Only | Print | Product List | Glossary On
Versions: 1 2 3 4 5 6 7 8 9 10 11 12 13 14 15 16 17 18 19 20 21 22 23 24 25 26 27 28 29 30 31 32 33 34 35 36 37 38 39 40 41 42 43 44 45 46 47 48 49 50
213
ASUS43 KIND 052059
RWRIN

WEATHER ROUNDUP FOR INDIANA
NATIONAL WEATHER SERVICE INDIANAPOLIS IN
400 PM EST FRI FEB 05 2016

NOTE: "FAIR" INDICATES FEW OR NO CLOUDS BELOW 12,000 FEET WITH NO
SIGNIFICANT WEATHER AND/OR OBSTRUCTIONS TO VISIBILITY.

* - STATION DOES NOT REPORT WEATHER SUCH AS PRECIPITATION OR FOG.

+ - STATION NOT QUALITY CONTROLLED BY THE NATIONAL WEATHER SERVICE.
    USE DATA WITH CAUTION...ESPECIALLY DEWPOINT AND RELATIVE
    HUMIDITY OBSERVATIONS.

INZ001>003-010>013-019-020-052200-
NORTHWEST INDIANA

CITY           SKY/WX    TMP DP  RH WIND       PRES   REMARKS
GARY /AIRPORT/ PTSUNNY   32  23  69 CALM      30.35S
RENSSELAER +   CLOUDY    32  23  69 W10       30.35R WCI  24

$$

LMZ046-743>745-052200-
SOUTHERN LAKE MICHIGAN

STATION/POSITION TIME  TEMP    WIND        PRES    WAVE
                       AIR SEA DIR/SP/G            HT
                 (UTC) (F)     (DEG/KT/KT) (MB)    (FT)
BURNS HARBOR     2000   30     340/ 10/ 14 1027.4F
MICHIGAN CITY    2000   30     300/ 14/ 16   N/A

$$

INZ004-005-014>016-021>024-052200-
NORTH CENTRAL INDIANA

CITY           SKY/WX    TMP DP  RH WIND       PRES   REMARKS
ELKHART          N/A     32  25  74 W7        30.30S WCI  26
GOSHEN         CLOUDY    33  26  75 SW12      30.30S WCI  24
SOUTH BEND     FLURRIES  30  25  81 NW15      30.32R WCI  19

$$

INZ006>009-017-018-025>027-052200-
NORTHEAST INDIANA

CITY           SKY/WX    TMP DP  RH WIND       PRES   REMARKS
ANGOLA *+      CLOUDY    32  25  74 W13       30.28R WCI  22
FORT WAYNE     PTSUNNY   34  26  72 W12       30.32R WCI  25

$$

INZ028-029-035-036-043>045-051>053-052200-
WEST CENTRAL INDIANA

CITY           SKY/WX    TMP DP  RH WIND       PRES   REMARKS
GREENCASTLE +  CLOUDY    36  19  51 W7        30.35R
LAFAYETTE      CLOUDY    31  22  69 W8        30.36R WCI  23
TERRE HAUTE    CLOUDY    34  23  64 VRB6      30.38R WCI  29

$$

INZ030>032-037>040-046>048-054>057-064-065-052200-
CENTRAL INDIANA

CITY           SKY/WX    TMP DP  RH WIND       PRES   REMARKS
ANDERSON       SUNNY     39  25  56 W12G17    30.32R
COLUMBUS       MOSUNNY   43  25  49 SW12      30.32F
GREENWOOD *+   CLOUDY    41  27  56 NW7       30.32S
INDIANAPOLIS   CLOUDY    39  22  50 W10       30.32R
-EAGLE CREEK   CLOUDY    37  25  61 W12       30.33R
KOKOMO *+        N/A     34  21  60 W14       30.34R WCI  24
MT COMFORT *+  CLOUDY    39  25  56 W14       30.32R
SHELBYVILLE    CLOUDY    43  24  47 W9        30.31S

$$

INZ033-034-041-042-049-050-058-059-052200-
EAST CENTRAL INDIANA

CITY           SKY/WX    TMP DP  RH WIND       PRES   REMARKS
MUNCIE         MOSUNNY   39  25  57 W9        30.31R

$$

INZ060-061-067>069-081>083-085>088-052200-
SOUTHWEST INDIANA

CITY           SKY/WX    TMP DP  RH WIND       PRES   REMARKS
EVANSVILLE     SUNNY     48  22  35 W12       30.37F
HUNTINGBURG *+ CLOUDY    46  25  42 SW12      30.37S

$$

INZ062-063-066-070>080-084-089>092-052200-
SOUTH CENTRAL AND SOUTHEAST INDIANA

CITY           SKY/WX    TMP DP  RH WIND       PRES   REMARKS
BLOOMINGTON    CLOUDY    41  23  48 W8        30.33S
MADISON *+     CLOUDY    43  21  42 S10       30.36S
SEYMOUR +      CLOUDY    46  25  42 SW12      30.34S

$$





USA.gov is the U.S. government's official web portal to all federal, state and local government web resources and services.